Weather in Nizhneleninskoye

Russia / Jewish Autonomous Oblast     47°57′43″N   132°40′01″E
temp.,
°C
wind,
m/s
gust,
m/s
humid.,
%
clouds,
%
prec.,
mm/h
press.,
hPa
HPBL,
m
11 april, sun
sun1101:00+8s4144599 0.0 1021383
04:00+8s51341100 0.0 1019357
07:00+8s51344100 0.0 1019359
10:00+10sw41042100 0.1 1020733
13:00+9wsw31064100 0.5 1020662
16:00+13wsw5756100 0.7 10191146
19:00+11wsw3564100 0.0 1019162
22:00+9sw2278100 0.3 101925
12 april, mon
mon1201:00+8n1194100 5.4 101817
04:00+4ne4587100 8.9 1019235
07:00+4ene3492100 1.9 1017208
10:00+5ene2390100 2.2 1016240
13:00+15sw4115290 0.1 10111735
16:00+19sw71532100 0.1 10063319
19:00+16sw61337100 0.0 1004457
22:00+11wsw4666100 0.1 1005267
13 april, tue
tue1301:00+5wnw4580100 0.2 1005378
04:00−2wnw6985100 0.4 1006469
07:00−3wnw61062100 0.1 1006698
10:00−2wnw71153100 0.1 1007896
13:00+1wnw911385 0.0 10081535
16:00+1wnw9113799 0.0 10082541
19:000wnw6104198 0.0 10072263
22:00−2wnw612515 0.0 10081074
14 april, wed
wed1401:00−2w612522 0.0 1008913
04:00−3w511525 0.0 1008764
07:00−3w511521 0.0 10091126
10:000wnw7103585 0.0 10102130
13:00+2wnw6928100 0.0 10092781
16:00+3wnw6930100 0.0 10102543
19:00+2wnw583537 0.0 10111728
22:00−2wnw25583 0.0 101387
15 april, thu
thu1501:00−2wnw22620 0.0 101447
04:00−2w22590 0.0 101523
07:00−2sw23541 0.0 101575
10:00+3s33325 0.0 1015820
13:00+6sse44255 0.0 10141295
16:00+9se6825100 0.0 10101481
19:00+9se61135100 0.0 1008820
22:00+7ese61344100 0.0 1006551